CW5272 Weather Reports


Display with metric or nautical units.
time (UTC)temp
F
wind
direction
speed
MPH
gust
MPH
rain 1hr
in
rain 24hr
in
rain mn
in
humidity
%
barometer
mb
20260507024534 63 218 3.0 7.0 0.00 0.00 0.00 75 1018.4
20260507023033 65 0 1.0 9.0 0.00 0.00 0.00 73 1018.4
20260507021532 66 209 1.0 9.0 0.00 0.00 0.00 71 1018.4
20260507020034 68 202 1.0 7.0 0.00 0.00 0.00 70 1018.4
20260507014535 69 200 1.0 8.0 0.00 0.00 0.00 68 1018.3
20260507013037 70 0 0.0 7.0 0.00 0.00 0.00 67 1018.3
20260507011538 70 196 3.0 7.0 0.00 0.00 0.00 67 1018.3
20260507010030 70 0 0.0 6.0 0.00 0.00 0.00 66 1018.3
20260507004530 71 0 0.0 3.0 0.00 0.00 0.00 66 1018.3
20260507003033 72 0 0.0 3.0 0.00 0.00 0.00 65 1018.2
20260507001546 72 192 1.0 5.0 0.00 0.00 0.00 63 1018.0
20260507000030 72 0 0.0 4.0 0.00 0.00 0.00 63 1018.1
20260506234541 73 0 0.0 4.0 0.00 0.00 0.00 61 1018.1
20260506233033 73 194 2.0 7.0 0.00 0.00 0.00 61 1018.3
20260506231536 73 0 0.0 7.0 0.00 0.00 0.00 62 1018.2
20260506230039 72 190 1.0 5.0 0.00 0.00 0.00 62 1018.3
20260506224532 72 0 1.0 6.0 0.00 0.00 0.00 62 1018.6
20260506223038 73 0 0.0 8.0 0.00 0.00 0.00 64 1018.7
20260506221531 73 0 2.0 7.0 0.00 0.00 0.00 61 1018.7
20260506220033 72 0 0.0 7.0 0.00 0.00 0.00 63 1018.8
20260506214532 73 0 2.0 11.0 0.00 0.00 0.00 61 1019.0
20260506213029 72 210 2.0 8.0 0.00 0.00 0.00 63 1019.2
20260506211538 72 207 1.0 9.0 0.00 0.00 0.00 64 1019.4
20260506210035 71 0 0.0 5.0 0.00 0.00 0.00 64 1019.4
20260506204536 73 0 0.0 4.0 0.00 0.00 0.00 59 1019.4
20260506203052 70 227 2.0 10.0 0.00 0.00 0.00 64 1019.6
20260506201533 71 0 0.0 5.0 0.00 0.00 0.00 63 1019.8
20260506200044 69 289 0.0 4.0 0.00 0.00 0.00 65 1019.9
20260506194534 69 0 0.0 0.0 0.00 0.00 0.00 65 1020.2
20260506193031 68 0 0.0 3.0 0.00 0.00 0.00 69 1020.2
20260506191532 69 0 1.0 5.0 0.00 0.00 0.00 66 1020.3
20260506190039 69 0 0.0 2.0 0.00 0.00 0.00 63 1020.3
20260506184541 68 328 3.0 9.0 0.00 0.00 0.00 66 1020.4
20260506183033 66 0 0.0 4.0 0.00 0.00 0.00 68 1020.3
20260506181533 63 0 0.0 5.0 0.00 0.00 0.00 72 1020.5
20260506180036 62 0 1.0 6.0 0.00 0.00 0.00 75 1020.4
20260506174530 62 0 0.0 0.0 0.00 0.00 0.00 78 1020.4
20260506173037 64 0 0.0 5.0 0.00 0.00 0.00 72 1020.3
20260506171535 62 0 0.0 2.0 0.00 0.00 0.00 78 1020.4
20260506170033 61 0 0.0 2.0 0.00 0.00 0.00 78 1020.5
20260506164532 60 0 0.0 3.0 0.00 0.00 0.00 79 1020.5
20260506163045 61 0 0.0 1.0 0.00 0.00 0.00 77 1020.6
20260506161530 60 327 1.0 5.0 0.00 0.00 0.00 80 1020.5
20260506160035 58 0 0.0 4.0 0.00 0.00 0.00 82 1020.6
20260506154538 59 0 0.0 4.0 0.00 0.00 0.00 80 1020.6
20260506153033 58 0 0.0 6.0 0.00 0.00 0.00 84 1020.6
20260506151539 55 0 0.0 4.0 0.00 0.00 0.00 90 1020.6
20260506150029 54 0 0.0 9.0 0.00 0.00 0.00 93 1020.6
20260506144534 52 0 0.0 6.0 0.00 0.00 0.00 93 1020.7
20260506143032 52 0 0.0 0.0 0.00 0.00 0.00 93 1020.6
20260506141535 51 0 0.0 4.0 0.00 0.00 0.00 93 1020.6
20260506140034 51 0 0.0 3.0 0.00 0.00 0.00 93 1020.3
20260506134531 51 0 0.0 0.0 0.00 0.00 0.00 93 1020.1
20260506133033 51 0 0.0 0.0 0.00 0.00 0.00 92 1020.0
20260506131536 51 0 0.0 0.0 0.00 0.00 0.00 92 1019.8
20260506130030 51 0 0.0 0.0 0.00 0.00 0.00 92 1019.5
20260506124533 52 0 0.0 0.0 0.00 0.00 0.00 92 1019.5
20260506123033 52 0 0.0 4.0 0.00 0.00 0.00 92 1019.5
20260506121533 52 0 0.0 0.0 0.00 0.00 0.00 92 1019.4
20260506120034 52 0 0.0 0.0 0.00 0.00 0.00 92 1019.3
20260506114530 52 0 0.0 0.0 0.00 0.00 0.00 92 1019.3
20260506113032 52 0 0.0 0.0 0.00 0.00 0.00 92 1019.3
20260506111534 51 0 0.0 0.0 0.00 0.00 0.00 92 1019.2
20260506110034 51 0 0.0 0.0 0.00 0.00 0.00 92 1019.2
20260506104532 51 0 0.0 0.0 0.00 0.00 0.00 92 1019.1
20260506103033 51 0 0.0 0.0 0.00 0.00 0.00 92 1019.2
20260506101533 51 0 0.0 0.0 0.00 0.00 0.00 92 1019.3
20260506100034 51 0 0.0 0.0 0.00 0.00 0.00 92 1019.2
20260506094535 51 0 0.0 0.0 0.00 0.00 0.00 92 1019.1
20260506093032 51 0 0.0 0.0 0.00 0.00 0.00 92 1019.3
20260506091532 51 0 0.0 3.0 0.00 0.00 0.00 91 1019.3
20260506090030 51 0 0.0 3.0 0.00 0.00 0.00 91 1019.1
20260506084537 51 0 1.0 5.0 0.00 0.00 0.00 91 1018.9
20260506083035 51 0 1.0 9.0 0.00 0.00 0.00 90 1018.9
20260506081537 51 325 1.0 6.0 0.00 0.00 0.00 91 1018.9
20260506073038 52 324 3.0 8.0 0.00 0.00 0.00 89 1018.7
20260506071552 52 0 3.0 8.0 0.00 0.00 0.00 89 1018.8
20260506061542 53 0 1.0 6.0 0.00 0.00 0.00 88 1018.5
20260506044530 53 0 0.0 5.0 0.00 0.00 0.00 87 1018.0
20260506043031 53 0 0.0 0.0 0.00 0.00 0.00 87 1017.9
20260506041550 53 0 0.0 6.0 0.00 0.00 0.00 87 1017.8
20260506040033 53 0 0.0 5.0 0.00 0.00 0.00 87 1017.5
20260506034549 54 0 1.0 9.0 0.00 0.00 0.00 87 1017.3
20260506033033 54 0 0.0 6.0 0.00 0.00 0.00 87 1017.2
20260506031533 54 0 0.0 8.0 0.00 0.00 0.00 86 1017.0
20260506030032 54 0 0.0 3.0 0.00 0.00 0.00 86 1016.8